CW5283 Weather Reports


time (UTC)temp
C
wind
direction
speed
KPH
gust
KPH
rain 1hr
cm
rain 24hr
cm
rain mn
cm
humidity
%
barometer
mb
20260508033725 16 260 0.0 0.0 0.00 0.00 0.00 75 1011.4
20260508033523 16 260 0.0 0.0 0.00 0.00 0.00 74 1011.4
20260508033046 16 260 0.0 0.0 0.00 0.00 0.00 74 1011.4
20260508032733 16 260 0.0 0.0 0.00 0.00 0.00 73 1011.2
20260508032552 17 260 0.0 0.0 0.00 0.00 0.00 73 1011.2
20260508032034 17 260 0.0 0.0 0.00 0.00 0.00 73 1011.2
20260508031744 17 260 0.0 0.0 0.00 0.00 0.00 72 1011.2
20260508031521 17 260 0.0 0.0 0.00 0.00 0.00 72 1011.2
20260508031024 17 260 0.0 0.0 0.00 0.00 0.00 71 1011.0
20260508030757 17 260 0.0 0.0 0.00 0.00 0.00 71 1011.0
20260508030517 17 260 0.0 0.0 0.00 0.00 0.00 71 1011.0
20260508030024 17 260 0.0 0.0 0.00 0.00 0.00 70 1011.0
20260508025729 17 260 0.0 0.0 0.00 0.00 0.00 70 1010.8
20260508025528 17 261 0.0 0.0 0.00 0.00 0.00 69 1010.8
20260508025033 18 268 0.0 0.0 0.00 0.00 0.00 69 1010.8
20260508024722 18 280 0.0 0.0 0.00 0.00 0.00 68 1010.8
20260508024520 18 278 0.0 0.0 0.00 0.00 0.00 68 1010.8
20260508024022 18 318 0.0 0.0 0.00 0.00 0.00 67 1010.4
20260508023751 18 318 0.0 0.0 0.00 0.00 0.00 67 1010.4
20260508023548 18 318 0.0 0.0 0.00 0.00 0.00 66 1010.4
20260508023050 18 318 0.0 0.0 0.00 0.00 0.00 65 1010.4
20260508022737 19 316 0.0 0.0 0.00 0.00 0.00 65 1010.4
20260508022534 19 316 0.0 0.0 0.00 0.00 0.00 65 1010.2
20260508022038 19 287 0.0 0.0 0.00 0.00 0.00 64 1010.2
20260508021727 19 263 0.0 0.0 0.00 0.00 0.00 64 1010.2
20260508021524 19 242 0.0 0.0 0.00 0.00 0.00 63 1010.2
20260508021030 20 242 0.0 0.0 0.00 0.00 0.00 63 1010.3
20260508020721 20 242 0.0 0.0 0.00 0.00 0.00 62 1010.3
20260508020519 20 241 0.0 0.0 0.00 0.00 0.00 62 1010.3
20260508020027 20 241 0.0 0.0 0.00 0.00 0.00 62 1010.3
20260508015730 20 246 0.0 0.0 0.00 0.00 0.00 61 1010.3
20260508015532 20 246 0.0 0.0 0.00 0.00 0.00 61 1010.3
20260508015035 20 252 0.0 0.0 0.00 0.00 0.00 61 1010.3
20260508014741 20 286 0.0 0.0 0.00 0.00 0.00 61 1010.3
20260508014542 20 288 0.0 0.0 0.00 0.00 0.00 60 1010.3
20260508014023 20 288 0.0 0.0 0.00 0.00 0.00 60 1010.3
20260508013730 21 288 0.0 0.0 0.00 0.00 0.00 59 1010.3
20260508013532 21 288 0.0 0.0 0.00 0.00 0.00 59 1010.3
20260508013058 21 236 0.0 0.0 0.00 0.00 0.00 59 1010.3
20260508012721 21 252 0.0 0.0 0.00 0.00 0.00 58 1010.2
20260508012525 21 252 0.0 0.0 0.00 0.00 0.00 58 1010.2
20260508012029 21 246 0.0 0.0 0.00 0.00 0.00 58 1010.2
20260508011739 21 280 0.0 0.0 0.00 0.00 0.00 57 1010.2
20260508011521 21 274 0.0 0.0 0.00 0.00 0.00 57 1010.2
20260508011024 22 241 0.0 0.0 0.00 0.00 0.00 56 1010.1
20260508010737 22 240 0.0 0.0 0.00 0.00 0.00 56 1010.1
20260508010557 22 225 0.0 0.0 0.00 0.00 0.00 56 1010.1
20260508010039 22 286 0.0 0.0 0.00 0.00 0.00 55 1010.1
20260508005746 22 286 0.0 0.0 0.00 0.00 0.00 55 1010.1
20260508005525 22 286 0.0 0.0 0.00 0.00 0.00 55 1010.1
20260508005028 22 280 0.0 0.0 0.00 0.00 0.00 54 1010.1
20260508004721 22 272 0.0 0.0 0.00 0.00 0.00 53 1010.1
20260508004519 22 295 0.0 0.0 0.00 0.00 0.00 53 1010.1
20260508004021 22 250 0.0 0.0 0.00 0.00 0.00 53 1010.0
20260508003733 22 248 0.0 0.0 0.00 0.00 0.00 53 1010.0
20260508003530 22 310 0.0 0.0 0.00 0.00 0.00 52 1010.0
20260508003032 22 243 0.0 0.0 0.00 0.00 0.00 53 1010.0
20260508002739 22 239 0.0 0.0 0.00 0.00 0.00 52 1010.0
20260508002537 22 288 0.0 0.0 0.00 0.00 0.00 53 1010.0
20260508002019 22 252 0.0 0.0 0.00 0.00 0.00 52 1010.0
20260508001729 23 252 0.0 0.0 0.00 0.00 0.00 51 1010.0
20260508001526 23 244 0.0 0.0 0.00 0.00 0.00 51 1010.0
20260508001047 23 250 0.0 0.0 0.00 0.00 0.00 50 1010.0
20260508000735 23 234 0.0 0.0 0.00 0.00 0.00 50 1010.0
20260508000534 23 238 0.0 0.0 0.00 0.00 0.00 50 1010.0
20260508000035 24 228 0.0 0.0 0.00 0.00 0.00 48 1010.0
20260507235721 24 285 0.0 0.0 0.00 0.00 0.00 47 1010.0
20260507235539 24 251 0.0 0.0 0.00 0.00 0.00 48 1010.0
20260507235021 25 287 0.0 0.0 0.00 0.00 0.00 46 1010.0
20260507234730 25 300 0.0 0.0 0.00 0.00 0.00 47 1010.0
20260507234530 25 292 0.0 0.0 0.00 0.00 0.00 47 1010.0
20260507234059 25 249 0.0 0.0 0.00 0.00 0.00 46 1010.0
20260507233726 25 248 0.0 0.0 0.00 0.00 0.00 46 1010.0
20260507233523 25 256 0.0 0.0 0.00 0.00 0.00 46 1010.0
20260507233025 25 294 0.0 0.0 0.00 0.00 0.00 47 1010.0
20260507232735 25 291 0.0 0.0 0.00 0.00 0.00 47 1010.0
20260507232533 24 296 0.0 0.0 0.00 0.00 0.00 47 1010.0
20260507232022 24 259 0.0 0.0 0.00 0.00 0.00 48 1010.0
20260507231728 25 282 0.0 0.0 0.00 0.00 0.00 47 1010.0
20260507231524 25 274 0.0 0.0 0.00 0.00 0.00 47 1010.0
20260507231029 25 275 0.0 0.0 0.00 0.00 0.00 47 1010.0
20260507230734 25 301 0.0 0.0 0.00 0.00 0.00 47 1010.0
20260507230535 25 276 0.0 0.0 0.00 0.00 0.00 47 1010.0
20260507230016 25 268 0.0 0.0 0.00 0.00 0.00 46 1010.0
20260507225721 25 259 0.0 0.0 0.00 0.00 0.00 47 1010.1
20260507225546 25 234 0.0 0.0 0.00 0.00 0.00 46 1010.1
20260507225028 25 249 0.0 0.0 0.00 0.00 0.00 47 1010.1
20260507224754 25 282 0.0 0.0 0.00 0.00 0.00 47 1010.1
20260507224533 25 264 0.0 0.0 0.00 0.00 0.00 47 1010.1
20260507224038 25 254 0.0 0.0 0.00 0.00 0.00 48 1010.2
20260507223741 24 246 0.0 0.0 0.00 0.00 0.00 48 1010.2
20260507223524 24 250 0.0 0.0 0.00 0.00 0.00 48 1010.2
20260507223044 24 281 0.0 0.0 0.00 0.00 0.00 48 1010.2
20260507222726 24 209 0.0 0.0 0.00 0.00 0.00 47 1010.4
20260507222530 25 250 0.0 0.0 0.00 0.00 0.00 47 1010.4
20260507222034 24 236 0.0 0.0 0.00 0.00 0.00 47 1010.4
20260507221737 24 306 0.0 0.0 0.00 0.00 0.00 48 1010.4
20260507221538 24 295 0.0 0.0 0.00 0.00 0.00 49 1010.4
20260507221019 24 237 0.0 0.0 0.00 0.00 0.00 49 1010.5
20260507220724 24 247 0.0 0.0 0.00 0.00 0.00 48 1010.5
20260507220524 24 278 0.0 0.0 0.00 0.00 0.00 50 1010.5
20260507220023 24 260 0.0 0.0 0.00 0.00 0.00 49 1010.5
20260507215729 25 265 0.0 0.0 0.00 0.00 0.00 48 1010.6
20260507215534 25 255 0.0 0.0 0.00 0.00 0.00 48 1010.6
20260507215038 25 304 0.0 0.0 0.00 0.00 0.00 48 1010.6
20260507214722 25 239 0.0 0.0 0.00 0.00 0.00 47 1010.6
20260507214526 25 234 0.0 0.0 0.00 0.00 0.00 48 1010.6
20260507214028 25 298 0.0 0.0 0.00 0.00 0.00 47 1010.8
20260507213731 25 252 0.0 0.0 0.00 0.00 0.00 47 1010.8
20260507213531 25 245 0.0 0.0 0.00 0.00 0.00 48 1010.8
20260507213032 25 312 0.0 0.0 0.00 0.00 0.00 48 1010.8
20260507212735 25 267 0.0 0.0 0.00 0.00 0.00 48 1010.9
20260507212534 25 349 0.0 0.0 0.00 0.00 0.00 49 1010.9
20260507212035 25 244 0.0 0.0 0.00 0.00 0.00 50 1010.9
20260507211724 24 286 0.0 0.0 0.00 0.00 0.00 50 1010.9
20260507211541 24 303 0.0 0.0 0.00 0.00 0.00 51 1010.9
20260507211023 24 266 0.0 0.0 0.00 0.00 0.00 50 1011.0
20260507210727 24 269 0.0 0.0 0.00 0.00 0.00 50 1011.0
20260507210529 25 242 0.0 0.0 0.00 0.00 0.00 49 1011.0
20260507210034 25 283 0.0 0.0 0.00 0.00 0.00 50 1011.0
20260507205724 25 297 0.0 0.0 0.00 0.00 0.00 50 1011.0
20260507205520 25 287 0.0 0.0 0.00 0.00 0.00 49 1011.0
20260507205045 25 292 0.0 0.0 0.00 0.00 0.00 50 1011.0
20260507204753 25 263 0.0 0.0 0.00 0.00 0.00 50 1011.0
20260507204531 25 253 0.0 0.0 0.00 0.00 0.00 50 1011.0
20260507204031 25 219 0.0 0.0 0.00 0.00 0.00 48 1011.0
20260507203740 25 237 0.0 0.0 0.00 0.00 0.00 48 1011.0
20260507203537 25 261 0.0 0.0 0.00 0.00 0.00 50 1011.0
20260507203037 25 261 0.0 0.0 0.00 0.00 0.00 48 1011.0
20260507202722 25 292 0.0 0.0 0.00 0.00 0.00 49 1011.0
20260507202519 25 286 0.0 0.0 0.00 0.00 0.00 49 1011.0
20260507202024 25 244 0.0 0.0 0.00 0.00 0.00 50 1011.0
20260507201754 25 245 0.0 0.0 0.00 0.00 0.00 50 1011.0
20260507201530 25 271 0.0 0.0 0.00 0.00 0.00 50 1011.0
20260507201051 25 239 0.0 0.0 0.00 0.00 0.00 49 1011.2
20260507200738 25 240 0.0 0.0 0.00 0.00 0.00 49 1011.2
20260507200555 25 254 0.0 0.0 0.00 0.00 0.00 48 1011.2
20260507200037 25 317 0.0 0.0 0.00 0.00 0.00 48 1011.2
20260507195724 25 290 0.0 0.0 0.00 0.00 0.00 49 1011.3
20260507195523 25 322 0.0 0.0 0.00 0.00 0.00 49 1011.3
20260507195022 25 251 0.0 0.0 0.00 0.00 0.00 48 1011.3
20260507194729 25 259 0.0 0.0 0.00 0.00 0.00 48 1011.3
20260507194528 25 249 0.0 0.0 0.00 0.00 0.00 48 1011.3
20260507194030 25 349 0.0 0.0 0.00 0.00 0.00 47 1011.5
20260507193737 25 278 0.0 0.0 0.00 0.00 0.00 48 1011.5
20260507193534 25 298 0.0 0.0 0.00 0.00 0.00 47 1011.5
20260507193038 24 257 0.0 0.0 0.00 0.00 0.00 49 1011.5
20260507192722 24 298 0.0 0.0 0.00 0.00 0.00 47 1011.6
20260507192518 24 300 0.0 0.0 0.00 0.00 0.00 48 1011.6
20260507192022 24 276 0.0 0.0 0.00 0.00 0.00 50 1011.6
20260507191731 23 270 0.0 0.0 0.00 0.00 0.00 49 1011.6
20260507191528 23 270 0.0 0.0 0.00 0.00 0.00 50 1011.6
20260507191029 23 270 0.0 0.0 0.00 0.00 0.00 47 1011.9
20260507190718 23 284 0.0 0.0 0.00 0.00 0.00 48 1011.9
20260507190518 23 276 0.0 0.0 0.00 0.00 0.00 47 1011.9
20260507190041 23 261 0.0 0.0 0.00 0.00 0.00 48 1011.9
20260507185726 23 289 0.0 0.0 0.00 0.00 0.00 48 1012.0
20260507185524 23 290 0.0 0.0 0.00 0.00 0.00 47 1012.0
20260507185046 23 257 0.0 0.0 0.00 0.00 0.00 47 1012.0
20260507184732 23 258 0.0 0.0 0.00 0.00 0.00 48 1012.0
20260507184529 23 309 0.0 0.0 0.00 0.00 0.00 47 1012.0
20260507184031 23 276 0.0 0.0 0.00 0.00 0.00 48 1012.1
20260507183740 23 275 0.0 0.0 0.00 0.00 0.00 49 1012.1
20260507183518 23 276 0.0 0.0 0.00 0.00 0.00 48 1012.1
20260507183043 23 277 0.0 0.0 0.00 0.00 0.00 49 1012.1
20260507182730 23 277 0.0 0.0 0.00 0.00 0.00 49 1012.1
20260507182530 23 284 0.0 0.0 0.00 0.00 0.00 47 1012.1
20260507182052 23 293 0.0 0.0 0.00 0.00 0.00 48 1012.1
20260507181739 23 271 0.0 0.0 0.00 0.00 0.00 50 1012.1
20260507181535 23 232 0.0 0.0 0.00 0.00 0.00 51 1012.1
20260507181040 22 229 0.0 0.0 0.00 0.00 0.00 50 1012.2
20260507180727 22 229 0.0 0.0 0.00 0.00 0.00 50 1012.2
20260507180529 22 229 0.0 0.0 0.00 0.00 0.00 52 1012.2
20260507180028 22 218 0.0 0.0 0.00 0.00 0.00 53 1012.2
20260507175733 22 217 0.0 0.0 0.00 0.00 0.00 53 1012.2
20260507175536 22 242 0.0 0.0 0.00 0.00 0.00 52 1012.4
20260507175037 21 255 0.0 0.0 0.00 0.00 0.00 53 1012.4
20260507174721 21 250 0.0 0.0 0.00 0.00 0.00 52 1012.4
20260507174543 21 250 0.0 0.0 0.00 0.00 0.00 54 1012.4
20260507174022 21 250 0.0 0.0 0.00 0.00 0.00 53 1012.5
20260507173727 21 250 0.0 0.0 0.00 0.00 0.00 54 1012.5
20260507173529 21 250 0.0 0.0 0.00 0.00 0.00 53 1012.5
20260507173030 21 259 0.0 0.0 0.00 0.00 0.00 53 1012.5
20260507172731 21 259 0.0 0.0 0.00 0.00 0.00 54 1012.5
20260507172556 21 259 0.0 0.0 0.00 0.00 0.00 54 1012.6
20260507172038 20 269 0.0 0.0 0.00 0.00 0.00 55 1012.6
20260507171723 20 271 0.0 0.0 0.00 0.00 0.00 56 1012.6
20260507171545 20 273 0.0 0.0 0.00 0.00 0.00 57 1012.6
20260507171024 20 263 0.0 0.0 0.00 0.00 0.00 58 1012.7
20260507170732 20 263 0.0 0.0 0.00 0.00 0.00 59 1012.7
20260507170533 19 263 0.0 0.0 0.00 0.00 0.00 60 1012.7
20260507170036 19 259 0.0 0.0 0.00 0.00 0.00 59 1012.7
20260507165736 19 259 0.0 0.0 0.00 0.00 0.00 60 1012.7
20260507165538 19 254 0.0 0.0 0.00 0.00 0.00 61 1012.7
20260507165020 19 257 0.0 0.0 0.00 0.00 0.00 60 1012.7
20260507164727 18 254 0.0 0.0 0.00 0.00 0.00 61 1012.7
20260507164526 18 234 0.0 0.0 0.00 0.00 0.00 62 1012.7
20260507164027 18 233 0.0 0.0 0.00 0.00 0.00 64 1012.9
20260507163729 18 233 0.0 0.0 0.00 0.00 0.00 64 1012.9
20260507163529 18 233 0.0 0.0 0.00 0.00 0.00 64 1012.9
20260507163030 17 233 0.0 0.0 0.00 0.00 0.00 66 1012.9
20260507162734 17 233 0.0 0.0 0.00 0.00 0.00 67 1012.9
20260507162535 17 233 0.0 0.0 0.00 0.00 0.00 67 1012.9
20260507162056 17 233 0.0 0.0 0.00 0.00 0.00 69 1012.9
20260507161741 17 231 0.0 0.0 0.00 0.00 0.00 70 1012.9
20260507161522 16 231 0.0 0.0 0.00 0.00 0.00 71 1012.9
20260507161043 16 226 0.0 0.0 0.00 0.00 0.00 72 1012.9
20260507160726 16 227 0.0 0.0 0.00 0.00 0.00 72 1012.9
20260507160528 16 227 0.0 0.0 0.00 0.00 0.00 73 1012.9
20260507160029 16 226 0.0 0.0 0.00 0.00 0.00 73 1012.9
20260507155738 15 227 0.0 0.0 0.00 0.00 0.00 73 1012.9
20260507155533 15 227 0.0 0.0 0.00 0.00 0.00 74 1013.1
20260507155033 15 229 0.0 0.0 0.00 0.00 0.00 75 1013.1
20260507154736 15 229 0.0 0.0 0.00 0.00 0.00 75 1013.1
20260507154535 15 229 0.0 0.0 0.00 0.00 0.00 75 1013.1
20260507154100 15 229 0.0 0.0 0.00 0.00 0.00 76 1013.2
20260507153727 15 235 0.0 0.0 0.00 0.00 0.00 77 1013.2
20260507153543 15 229 0.0 0.0 0.00 0.00 0.00 77 1013.2
20260507153023 15 229 0.0 0.0 0.00 0.00 0.00 78 1013.2
20260507152724 14 229 0.0 0.0 0.00 0.00 0.00 78 1013.2
20260507152528 14 229 0.0 0.0 0.00 0.00 0.00 78 1013.2
20260507152029 14 229 0.0 0.0 0.00 0.00 0.00 78 1013.2
20260507151738 14 229 0.0 0.0 0.00 0.00 0.00 78 1013.2
20260507151535 14 229 0.0 0.0 0.00 0.00 0.00 78 1013.2
20260507151036 14 237 0.0 0.0 0.00 0.00 0.00 79 1013.2
20260507150724 13 238 0.0 0.0 0.00 0.00 0.00 79 1013.2
20260507150521 13 240 0.0 0.0 0.00 0.00 0.00 79 1013.2
20260507150022 13 241 0.0 0.0 0.00 0.00 0.00 80 1013.2
20260507145729 13 241 0.0 0.0 0.00 0.00 0.00 80 1013.1
20260507145529 13 241 0.0 0.0 0.00 0.00 0.00 80 1013.1
20260507145032 13 241 0.0 0.0 0.00 0.00 0.00 80 1013.1
20260507144740 13 241 0.0 0.0 0.00 0.00 0.00 80 1013.1
20260507144600 13 216 0.0 0.0 0.00 0.00 0.00 80 1013.1
20260507144021 13 215 0.0 0.0 0.00 0.00 0.00 81 1013.0
20260507143730 13 201 0.0 0.0 0.00 0.00 0.00 81 1013.0
20260507143547 13 201 0.0 0.0 0.00 0.00 0.00 81 1013.0
20260507143027 13 201 0.0 0.0 0.00 0.00 0.00 82 1013.0
20260507142733 13 200 0.0 0.0 0.00 0.00 0.00 82 1012.9
20260507142551 12 200 0.0 0.0 0.00 0.00 0.00 82 1012.9
20260507142031 12 184 0.0 0.0 0.00 0.00 0.00 82 1012.9
20260507141800 12 130 0.0 0.0 0.00 0.00 0.00 82 1012.9
20260507141556 12 130 0.0 0.0 0.00 0.00 0.00 82 1012.9
20260507141035 12 130 0.0 0.0 0.00 0.00 0.00 82 1012.6
20260507140723 12 88 0.0 0.0 0.00 0.00 0.00 82 1012.6
20260507140541 12 88 0.0 0.0 0.00 0.00 0.00 82 1012.6
20260507140021 12 64 0.0 0.0 0.00 0.00 0.00 82 1012.6
20260507135748 12 65 0.0 0.0 0.00 0.00 0.00 82 1012.6
20260507135523 12 65 0.0 0.0 0.00 0.00 0.00 82 1012.6
20260507135024 12 65 0.0 0.0 0.00 0.00 0.00 82 1012.6
20260507134753 12 65 0.0 0.0 0.00 0.00 0.00 82 1012.6
20260507134528 12 65 0.0 0.0 0.00 0.00 0.00 82 1012.6
20260507134029 12 65 0.0 0.0 0.00 0.00 0.00 82 1012.5
20260507133738 12 65 0.0 0.0 0.00 0.00 0.00 82 1012.5
20260507133555 12 65 0.0 0.0 0.00 0.00 0.00 82 1012.5
20260507133035 12 65 0.0 0.0 0.00 0.00 0.00 82 1012.5
20260507132723 12 65 0.0 0.0 0.00 0.00 0.00 82 1012.4
20260507132539 12 65 0.0 0.0 0.00 0.00 0.00 81 1012.4
20260507132039 12 62 0.0 0.0 0.00 0.00 0.00 81 1012.4
20260507131728 12 50 0.0 0.0 0.00 0.00 0.00 81 1012.4
20260507131526 12 50 0.0 0.0 0.00 0.00 0.00 81 1012.4
20260507131046 12 50 0.0 0.0 0.00 0.00 0.00 81 1012.4
20260507130734 12 50 0.0 0.0 0.00 0.00 0.00 80 1012.4
20260507130530 12 50 0.0 0.0 0.00 0.00 0.00 80 1012.4
20260507130032 12 49 0.0 0.0 0.00 0.00 0.00 80 1012.4
20260507125738 12 49 0.0 0.0 0.00 0.00 0.00 80 1012.4
20260507125536 12 49 0.0 0.0 0.00 0.00 0.00 80 1012.2
20260507125021 12 49 0.0 0.0 0.00 0.00 0.00 80 1012.2
20260507124729 12 49 0.0 0.0 0.00 0.00 0.00 80 1012.2
20260507124526 12 49 0.0 0.0 0.00 0.00 0.00 80 1012.2
20260507124047 12 49 0.0 0.0 0.00 0.00 0.00 80 1012.1
20260507123734 12 49 0.0 0.0 0.00 0.00 0.00 80 1012.1
20260507123532 12 49 0.0 0.0 0.00 0.00 0.00 80 1012.1
20260507123033 12 49 0.0 0.0 0.00 0.00 0.00 80 1012.1
20260507122801 12 49 0.0 0.0 0.00 0.00 0.00 80 1012.1
20260507122517 12 49 0.0 0.0 0.00 0.00 0.00 80 1012.1
20260507122042 12 49 0.0 0.0 0.00 0.00 0.00 80 1012.1
20260507121730 12 49 0.0 0.0 0.00 0.00 0.00 80 1012.1
20260507121527 12 49 0.0 0.0 0.00 0.00 0.00 80 1012.1
20260507121029 12 49 0.0 0.0 0.00 0.00 0.00 79 1012.1
20260507120736 12 49 0.0 0.0 0.00 0.00 0.00 79 1012.1
20260507120533 12 49 0.0 0.0 0.00 0.00 0.00 79 1012.1
20260507120035 12 49 0.0 0.0 0.00 0.00 0.00 79 1012.1
20260507115722 12 49 0.0 0.0 0.00 0.00 0.00 79 1012.1
20260507115522 12 49 0.0 0.0 0.00 0.00 0.00 79 1012.1
20260507115044 12 49 0.0 0.0 0.00 0.00 0.00 79 1012.1
20260507114727 12 49 0.0 0.0 0.00 0.00 0.00 79 1012.1
20260507114523 12 49 0.0 0.0 0.00 0.00 0.00 79 1012.1
20260507114028 12 49 0.0 0.0 0.00 0.00 0.00 78 1012.1
20260507113734 12 49 0.0 0.0 0.00 0.00 0.00 78 1012.1
20260507113536 12 49 0.0 0.0 0.00 0.00 0.00 78 1012.1
20260507113037 12 49 0.0 0.0 0.00 0.00 0.00 78 1012.1
20260507112801 12 49 0.0 0.0 0.00 0.00 0.00 78 1012.1
20260507112521 12 49 0.0 0.0 0.00 0.00 0.00 78 1012.3
20260507112021 12 49 0.0 0.0 0.00 0.00 0.00 77 1012.3
20260507111724 12 49 0.0 0.0 0.00 0.00 0.00 77 1012.3
20260507111526 12 49 0.0 0.0 0.00 0.00 0.00 77 1012.3
20260507111027 12 49 0.0 0.0 0.00 0.00 0.00 77 1012.2
20260507110731 12 49 0.0 0.0 0.00 0.00 0.00 77 1012.2
20260507110533 12 49 0.0 0.0 0.00 0.00 0.00 77 1012.2
20260507110037 12 49 0.0 0.0 0.00 0.00 0.00 77 1012.2
20260507105723 12 49 0.0 0.0 0.00 0.00 0.00 77 1012.2
20260507105521 12 49 0.0 0.0 0.00 0.00 0.00 77 1012.2
20260507105042 12 49 0.0 0.0 0.00 0.00 0.00 77 1012.2
20260507104745 12 49 0.0 0.0 0.00 0.00 0.00 77 1012.2
20260507104525 12 49 0.0 0.0 0.00 0.00 0.00 77 1012.2
20260507104025 12 49 0.0 0.0 0.00 0.00 0.00 77 1012.2
20260507103728 12 49 0.0 0.0 0.00 0.00 0.00 77 1012.2
20260507103528 12 49 0.0 0.0 0.00 0.00 0.00 77 1012.2
20260507103029 12 49 0.0 0.0 0.00 0.00 0.00 77 1012.2
20260507102752 12 49 0.0 0.0 0.00 0.00 0.00 77 1012.2
20260507102534 12 49 0.0 0.0 0.00 0.00 0.00 77 1012.2
20260507102035 12 49 0.0 0.0 0.00 0.00 0.00 77 1012.2
20260507101724 12 49 0.0 0.0 0.00 0.00 0.00 77 1012.2
20260507101520 12 49 0.0 0.0 0.00 0.00 0.00 77 1012.2
20260507101042 12 49 0.0 0.0 0.00 0.00 0.00 78 1012.3
20260507100746 12 40 0.0 0.0 0.00 0.00 0.00 78 1012.3
20260507100530 12 39 0.0 0.0 0.00 0.00 0.00 78 1012.3
20260507100058 12 37 0.0 0.0 0.00 0.00 0.00 78 1012.3
20260507095721 12 37 0.0 0.0 0.00 0.00 0.00 78 1012.5
20260507095525 12 37 0.0 0.0 0.00 0.00 0.00 77 1012.5
20260507095031 12 37 0.0 0.0 0.00 0.00 0.00 77 1012.5
20260507094740 12 37 0.0 0.0 0.00 0.00 0.00 77 1012.5
20260507094536 12 37 0.0 0.0 0.00 0.00 0.00 77 1012.5
20260507094036 12 37 0.0 0.0 0.00 0.00 0.00 77 1012.7
20260507093749 12 37 0.0 0.0 0.00 0.00 0.00 77 1012.7
20260507093526 12 37 0.0 0.0 0.00 0.00 0.00 77 1012.7
20260507093028 12 37 0.0 0.0 0.00 0.00 0.00 77 1012.7
20260507092737 12 37 0.0 0.0 0.00 0.00 0.00 77 1012.7
20260507092534 12 37 0.0 0.0 0.00 0.00 0.00 77 1012.9
20260507092038 12 37 0.0 0.0 0.00 0.00 0.00 77 1012.9
20260507091727 12 37 0.0 0.0 0.00 0.00 0.00 77 1012.9
20260507091523 12 37 0.0 0.0 0.00 0.00 0.00 77 1012.9
20260507091026 13 37 0.0 0.0 0.00 0.00 0.00 77 1013.0
20260507090736 13 37 0.0 0.0 0.00 0.00 0.00 77 1013.0
20260507090554 13 37 0.0 0.0 0.00 0.00 0.00 77 1013.0
20260507090036 13 37 0.0 0.0 0.00 0.00 0.00 77 1013.0
20260507085723 13 38 0.0 0.0 0.00 0.00 0.00 77 1013.1
20260507085522 13 37 0.0 0.0 0.00 0.00 0.00 77 1013.1
20260507085025 13 38 0.0 0.0 0.00 0.00 0.00 77 1013.1
20260507084737 13 38 0.0 0.0 0.00 0.00 0.00 77 1013.1
20260507084537 13 38 0.0 0.0 0.00 0.00 0.00 77 1013.1
20260507084041 13 36 0.0 0.0 0.00 0.00 0.00 77 1013.2
20260507083749 13 36 0.0 0.0 0.00 0.00 0.00 77 1013.2
20260507083525 13 36 0.0 0.0 0.00 0.00 0.00 77 1013.2
20260507083027 13 36 0.0 0.0 0.00 0.00 0.00 77 1013.2
20260507082738 13 36 0.0 0.0 0.00 0.00 0.00 77 1013.2
20260507082536 13 36 0.0 0.0 0.00 0.00 0.00 76 1013.3
20260507082023 13 36 0.0 0.0 0.00 0.00 0.00 76 1013.3
20260507081729 13 36 0.0 0.0 0.00 0.00 0.00 76 1013.3
20260507081546 13 36 0.0 0.0 0.00 0.00 0.00 76 1013.3
20260507081032 13 36 0.0 0.0 0.00 0.00 0.00 76 1013.2
20260507080738 13 36 0.0 0.0 0.00 0.00 0.00 76 1013.2
20260507080520 13 36 0.0 0.0 0.00 0.00 0.00 76 1013.2
20260507080024 13 36 0.0 0.0 0.00 0.00 0.00 76 1013.2
20260507075728 13 36 0.0 0.0 0.00 0.00 0.00 75 1013.2
20260507075553 13 36 0.0 0.0 0.00 0.00 0.00 75 1013.2
20260507075035 13 36 0.0 0.0 0.00 0.00 0.00 75 1013.2
20260507074741 13 36 0.0 0.0 0.00 0.00 0.00 75 1013.2
20260507074523 13 36 0.0 0.0 0.00 0.00 0.00 75 1013.2
20260507074027 13 36 0.0 0.0 0.00 0.00 0.00 75 1013.2
20260507073731 13 36 0.0 0.0 0.00 0.00 0.00 75 1013.2
20260507073535 13 36 0.0 0.0 0.00 0.00 0.00 75 1013.2
20260507073038 13 33 0.0 0.0 0.00 0.00 0.00 75 1013.2
20260507072726 13 32 0.0 0.0 0.00 0.00 0.00 75 1013.2
20260507072528 13 32 0.0 0.0 0.00 0.00 0.00 75 1013.2
20260507072033 13 32 0.0 0.0 0.00 0.00 0.00 75 1013.2
20260507071724 13 32 0.0 0.0 0.00 0.00 0.00 75 1013.2
20260507071524 13 32 0.0 0.0 0.00 0.00 0.00 75 1013.2
20260507071029 13 32 0.0 0.0 0.00 0.00 0.00 75 1013.3
20260507070739 13 32 0.0 0.0 0.00 0.00 0.00 74 1013.3
20260507070540 14 32 0.0 0.0 0.00 0.00 0.00 74 1013.3
20260507070022 14 32 0.0 0.0 0.00 0.00 0.00 74 1013.3
20260507065748 14 32 0.0 0.0 0.00 0.00 0.00 74 1013.4
20260507065549 14 32 0.0 0.0 0.00 0.00 0.00 74 1013.4
20260507065051 14 32 0.0 0.0 0.00 0.00 0.00 74 1013.4
20260507064722 14 32 0.0 0.0 0.00 0.00 0.00 74 1013.4
20260507064519 14 32 0.0 0.0 0.00 0.00 0.00 74 1013.4
20260507064021 14 32 0.0 0.0 0.00 0.00 0.00 74 1013.4
20260507063730 14 32 0.0 0.0 0.00 0.00 0.00 74 1013.4
20260507063531 14 32 0.0 0.0 0.00 0.00 0.00 74 1013.4
20260507063033 14 32 0.0 0.0 0.00 0.00 0.00 74 1013.4
20260507062720 14 32 0.0 0.0 0.00 0.00 0.00 74 1013.3
20260507062538 14 32 0.0 0.0 0.00 0.00 0.00 74 1013.3
20260507062020 14 32 0.0 0.0 0.00 0.00 0.00 74 1013.3
20260507061730 14 32 0.0 0.0 0.00 0.00 0.00 74 1013.3
20260507061528 14 32 0.0 0.0 0.00 0.00 0.00 74 1013.3
20260507061031 14 32 0.0 0.0 0.00 0.00 0.00 74 1013.6
20260507060723 14 32 0.0 0.0 0.00 0.00 0.00 74 1013.6
20260507060520 14 32 0.0 0.0 0.00 0.00 0.00 74 1013.6
20260507060029 14 31 0.0 0.0 0.00 0.00 0.00 74 1013.6
20260507055732 14 31 0.0 0.0 0.00 0.00 0.00 74 1013.6
20260507055537 14 31 0.0 0.0 0.00 0.00 0.00 74 1013.6
20260507055038 14 31 0.0 0.0 0.00 0.00 0.00 74 1013.6
20260507054722 14 31 0.0 0.0 0.00 0.00 0.00 74 1013.6
20260507054527 14 17 0.0 0.0 0.00 0.00 0.00 74 1013.6
20260507054050 14 14 0.0 0.0 0.00 0.00 0.00 74 1013.6
20260507053734 14 13 0.0 0.0 0.00 0.00 0.00 74 1013.6
20260507053536 14 339 0.0 0.0 0.00 0.00 0.00 74 1013.6
20260507053038 14 333 0.0 0.0 0.00 0.00 0.00 74 1013.6
20260507052721 14 333 0.0 0.0 0.00 0.00 0.00 74 1013.4
20260507052524 14 333 0.0 0.0 0.00 0.00 0.00 74 1013.4
20260507052027 14 332 0.0 0.0 0.00 0.00 0.00 74 1013.4
20260507051752 14 282 0.0 0.0 0.00 0.00 0.00 74 1013.4
20260507051533 14 282 0.0 0.0 0.00 0.00 0.00 74 1013.4
20260507051055 14 282 0.0 0.0 0.00 0.00 0.00 73 1013.5
20260507050759 14 282 0.0 0.0 0.00 0.00 0.00 73 1013.5
20260507050520 14 282 0.0 0.0 0.00 0.00 0.00 73 1013.5
20260507050023 14 282 0.0 0.0 0.00 0.00 0.00 73 1013.5
20260507045727 14 282 0.0 0.0 0.00 0.00 0.00 73 1013.5
20260507045532 14 282 0.0 0.0 0.00 0.00 0.00 73 1013.5
20260507045035 15 282 0.0 0.0 0.00 0.00 0.00 73 1013.5
20260507044724 15 282 0.0 0.0 0.00 0.00 0.00 72 1013.5
20260507044542 15 281 0.0 0.0 0.00 0.00 0.00 72 1013.5
20260507044024 15 278 0.0 0.0 0.00 0.00 0.00 72 1013.5
20260507043736 15 278 0.0 0.0 0.00 0.00 0.00 72 1013.5
20260507043516 15 278 0.0 0.0 0.00 0.00 0.00 72 1013.5
20260507043043 15 278 0.0 0.0 0.00 0.00 0.00 72 1013.5
20260507042749 15 278 0.0 0.0 0.00 0.00 0.00 72 1013.5
20260507042528 15 278 0.0 0.0 0.00 0.00 0.00 72 1013.5
20260507042030 15 278 0.0 0.0 0.00 0.00 0.00 72 1013.5
20260507041722 15 278 0.0 0.0 0.00 0.00 0.00 72 1013.5
20260507041519 15 278 0.0 0.0 0.00 0.00 0.00 72 1013.5
20260507041024 15 278 0.0 0.0 0.00 0.00 0.00 71 1013.5
20260507040732 15 278 0.0 0.0 0.00 0.00 0.00 71 1013.5
20260507040528 15 278 0.0 0.0 0.00 0.00 0.00 71 1013.5
20260507040034 15 278 0.0 0.0 0.00 0.00 0.00 71 1013.5
20260507035724 15 278 0.0 0.0 0.00 0.00 0.00 71 1013.4
20260507035524 15 278 0.0 0.0 0.00 0.00 0.00 71 1013.4
20260507035027 15 278 0.0 0.0 0.00 0.00 0.00 71 1013.4
20260507034735 15 278 0.0 0.0 0.00 0.00 0.00 71 1013.4
20260507034531 15 278 0.0 0.0 0.00 0.00 0.00 71 1013.4
20260507034016 15 278 0.0 0.0 0.00 0.00 0.00 71 1013.2